| time (UTC) | temp F | wind direction | speed MPH | gust MPH | rain 1hr in | rain 24hr in | rain mn in | humidity % | barometer mb |
| 20260504173021 | 65 | 210 | 6.0 | 12.0 | 0.00 | 0.00 | 0.00 | 58 | 1012.4 |
| 20260504171527 | 65 | 207 | 3.0 | 11.0 | 0.00 | 0.00 | 0.00 | 58 | 1012.1 |
| 20260504081506 | 51 | 205 | 3.0 | 6.0 | 0.00 | 0.00 | 0.00 | 56 | 1014.2 |
| 20260504050023 | 46 | 236 | 0.0 | 2.0 | 0.00 | 0.00 | 0.00 | 76 | 1015.9 |
| 20260504044525 | 47 | 236 | 0.0 | 0.0 | 0.00 | 0.00 | 0.00 | 73 | 1016.1 |
| 20260504043010 | 48 | 236 | 0.0 | 2.0 | 0.00 | 0.00 | 0.00 | 69 | 1016.1 |
| 20260504041515 | 48 | 236 | 0.0 | 2.0 | 0.00 | 0.00 | 0.00 | 64 | 1016.2 |
| 20260504040019 | 49 | 236 | 0.0 | 2.0 | 0.00 | 0.00 | 0.00 | 63 | 1016.2 |
| 20260504034537 | 49 | 235 | 0.0 | 0.0 | 0.00 | 0.00 | 0.00 | 62 | 1016.0 |
| 20260504033030 | 49 | 236 | 0.0 | 0.0 | 0.00 | 0.00 | 0.00 | 61 | 1015.8 |
| 20260504031516 | 50 | 235 | 0.0 | 2.0 | 0.00 | 0.00 | 0.00 | 63 | 1015.8 |
| 20260504030025 | 49 | 212 | 0.0 | 2.0 | 0.00 | 0.00 | 0.00 | 56 | 1015.9 |
| 20260504024523 | 50 | 229 | 0.0 | 2.0 | 0.00 | 0.00 | 0.00 | 61 | 1015.7 |
| 20260504023024 | 50 | 229 | 0.0 | 0.0 | 0.00 | 0.00 | 0.00 | 55 | 1015.8 |
| 20260504021528 | 50 | 229 | 0.0 | 1.0 | 0.00 | 0.00 | 0.00 | 52 | 1015.5 |
| 20260504020016 | 50 | 229 | 0.0 | 0.0 | 0.00 | 0.00 | 0.00 | 49 | 1015.5 |
| 20260504014505 | 51 | 229 | 0.0 | 2.0 | 0.00 | 0.00 | 0.00 | 52 | 1015.1 |
| 20260504013005 | 51 | 229 | 0.0 | 2.0 | 0.00 | 0.00 | 0.00 | 52 | 1015.2 |
| 20260504011504 | 52 | 229 | 0.0 | 2.0 | 0.00 | 0.00 | 0.00 | 50 | 1014.9 |
| 20260504010004 | 53 | 229 | 0.0 | 0.0 | 0.00 | 0.00 | 0.00 | 45 | 1015.4 |
| 20260504004504 | 55 | 229 | 0.0 | 0.0 | 0.00 | 0.00 | 0.00 | 43 | 1015.2 |
| 20260504003004 | 56 | 229 | 0.0 | 0.0 | 0.00 | 0.00 | 0.00 | 37 | 1015.5 |
| 20260504001504 | 57 | 229 | 0.0 | 3.0 | 0.00 | 0.00 | 0.00 | 35 | 1015.4 |
| 20260504000005 | 58 | 199 | 1.0 | 3.0 | 0.00 | 0.00 | 0.00 | 34 | 1015.5 |
| 20260503234508 | 59 | 250 | 1.0 | 3.0 | 0.00 | 0.00 | 0.00 | 32 | 1015.4 |
| 20260503233005 | 60 | 250 | 1.0 | 6.0 | 0.00 | 0.00 | 0.00 | 31 | 1015.5 |
| 20260503231504 | 61 | 210 | 0.0 | 7.0 | 0.00 | 0.00 | 0.00 | 30 | 1015.7 |
| 20260503230006 | 61 | 262 | 3.0 | 9.0 | 0.00 | 0.00 | 0.00 | 29 | 1015.7 |
| 20260503224503 | 62 | 231 | 2.0 | 7.0 | 0.00 | 0.00 | 0.00 | 29 | 1015.9 |
| 20260503223005 | 61 | 232 | 0.0 | 8.0 | 0.00 | 0.00 | 0.00 | 30 | 1016.1 |
| 20260503221525 | 62 | 226 | 4.0 | 8.0 | 0.00 | 0.00 | 0.00 | 30 | 1016.1 |
| 20260503220034 | 62 | 240 | 1.0 | 6.0 | 0.00 | 0.00 | 0.00 | 29 | 1016.2 |
| 20260503214527 | 61 | 278 | 3.0 | 9.0 | 0.00 | 0.00 | 0.00 | 30 | 1016.3 |
| 20260503213014 | 62 | 225 | 5.0 | 12.0 | 0.00 | 0.00 | 0.00 | 29 | 1016.6 |
| 20260503211523 | 61 | 253 | 5.0 | 13.0 | 0.00 | 0.00 | 0.00 | 30 | 1016.5 |
| 20260503210024 | 61 | 87 | 4.0 | 9.0 | 0.00 | 0.00 | 0.00 | 1016.4 | |
| 20260503204536 | 61 | 166 | 2.0 | 7.0 | 0.00 | 0.00 | 0.00 | 30 | 1016.6 |
| 20260503203026 | 61 | 207 | 2.0 | 4.0 | 0.00 | 0.00 | 0.00 | 1016.8 | |
| 20260503201523 | 60 | 223 | 2.0 | 6.0 | 0.00 | 0.00 | 0.00 | 31 | 1017.1 |
| 20260503200023 | 60 | 162 | 1.0 | 4.0 | 0.00 | 0.00 | 0.00 | 32 | 1017.2 |
| 20260503194527 | 59 | 225 | 3.0 | 11.0 | 0.00 | 0.00 | 0.00 | 31 | 1017.5 |
| 20260503193029 | 59 | 238 | 3.0 | 7.0 | 0.00 | 0.00 | 0.00 | 32 | 1017.8 |
| 20260503191525 | 61 | 130 | 1.0 | 7.0 | 0.00 | 0.00 | 0.00 | 30 | 1018.1 |
| 20260503190018 | 60 | 268 | 1.0 | 4.0 | 0.00 | 0.00 | 0.00 | 34 | 1018.3 |
| 20260503184528 | 58 | 259 | 2.0 | 12.0 | 0.00 | 0.00 | 0.00 | 32 | 1018.7 |
| 20260503183035 | 59 | 9 | 2.0 | 14.0 | 0.00 | 0.00 | 0.00 | 35 | 1018.8 |
| 20260503181527 | 57 | 270 | 1.0 | 5.0 | 0.00 | 0.00 | 0.00 | 34 | 1019.2 |
| 20260503180031 | 58 | 194 | 1.0 | 4.0 | 0.00 | 0.00 | 0.00 | 33 | 1019.3 |
| 20260503174524 | 56 | 82 | 2.0 | 9.0 | 0.00 | 0.00 | 0.00 | 34 | 1019.4 |